Location: Unspecified
(0.0000°N, 0.0000°E)
Time: 07:02:52
(UTC+02:00)

IUS-9 SRM-1 - Visible Passes

Search period start: 21 April 2015 00:00
Search period end: 01 May 2015 00:00
Orbit: 257 x 20445 km, 26.5° (Epoch: 20 April)

Date Brightness Start Highest point End Pass type
(mag) Time Alt. Az. Time Alt. Az. Time Alt. Az.
21 Apr 7.5 15:49:52 10° WNW 19:40:10 66° SSW 20:45:36 10° SE visible
22 Apr 7.5 15:44:51 10° WNW 19:32:43 66° SSW 20:40:47 10° SE visible
23 Apr 7.5 15:39:45 10° WNW 19:24:54 66° SSW 20:35:52 10° SE visible
24 Apr 7.5 15:34:31 10° WNW 19:16:39 67° SSW 20:30:50 10° SE visible
25 Apr 7.5 15:29:12 10° WNW 19:07:58 67° SSW 20:25:41 10° SE visible
